VTK503 UCFM-UTDD

Flight info

Callsign VTK503
Flight time 1h 15m
Altitude 36000
Route GASTA2 GASTA M34 OSH L135 VADER B350 JD JD8
Aircraft A319/M-SDE3FGHIRWY/LB1

Departure

Time 2026-04-21 09:40
Airport Manas International Airport (UCFM)

Arrival

Time 2026-04-21 10:55
Airport Dushanbe International Airport (UTDD)
Time Latitude Longitude Altitude Speed Heading
2026-04-21 09:14 43.05487 74.46964 2069 ft 0 kts 168°
2026-04-21 09:29 43.05490 74.46963 2069 ft 2 kts 168°
2026-04-21 09:29 43.05506 74.46959 2069 ft 2 kts 168°
2026-04-21 09:29 43.05522 74.46954 2069 ft 2 kts 166°
2026-04-21 09:29 43.05538 74.46949 2069 ft 2 kts 166°
2026-04-21 09:30 43.05554 74.46943 2069 ft 2 kts 163°
2026-04-21 09:30 43.05570 74.46936 2069 ft 2 kts 149°
2026-04-21 09:30 43.05580 74.46920 2069 ft 1 kts 73°
2026-04-21 09:30 43.05579 74.46917 2069 ft 0 kts 82°
2026-04-21 09:32 43.05579 74.46920 2069 ft 1 kts 82°
2026-04-21 09:32 43.05583 74.46959 2069 ft 7 kts 80°
2026-04-21 09:32 43.05594 74.47039 2069 ft 10 kts 79°
2026-04-21 09:33 43.05622 74.47128 2069 ft 11 kts 19°
2026-04-21 09:33 43.05695 74.47145 2069 ft 10 kts 53°
2026-04-21 09:33 43.05766 74.47158 2069 ft 12 kts 348°
2026-04-21 09:33 43.05845 74.47186 2069 ft 14 kts 64°
2026-04-21 09:34 43.05861 74.47328 2069 ft 17 kts 82°
2026-04-21 09:34 43.05884 74.47494 2069 ft 19 kts 79°
2026-04-21 09:34 43.05900 74.47670 2069 ft 19 kts 81°
2026-04-21 09:34 43.05928 74.47846 2068 ft 19 kts 76°
2026-04-21 09:35 43.05953 74.48024 2069 ft 19 kts 81°
2026-04-21 09:35 43.05975 74.48204 2069 ft 19 kts 80°
2026-04-21 09:35 43.05999 74.48388 2069 ft 19 kts 80°
2026-04-21 09:35 43.06064 74.48545 2069 ft 20 kts 50°
2026-04-21 09:36 43.06151 74.48686 2068 ft 20 kts 49°
2026-04-21 09:36 43.06242 74.48834 2066 ft 21 kts 52°
2026-04-21 09:36 43.06291 74.49019 2067 ft 20 kts 81°
2026-04-21 09:36 43.06314 74.49212 2067 ft 21 kts 80°
2026-04-21 09:37 43.06340 74.49403 2069 ft 20 kts 79°
2026-04-21 09:37 43.06363 74.49585 2071 ft 19 kts 80°
2026-04-21 09:37 43.06386 74.49764 2072 ft 19 kts 79°
2026-04-21 09:37 43.06410 74.49941 2071 ft 19 kts 79°
2026-04-21 09:38 43.06428 74.50127 2070 ft 20 kts 100°
2026-04-21 09:38 43.06404 74.50280 2070 ft 15 kts 34°
2026-04-21 09:38 43.06445 74.50210 2070 ft 9 kts 259°
2026-04-21 09:38 43.06433 74.50125 2070 ft 10 kts 259°
2026-04-21 09:39 43.06419 74.50028 2070 ft 12 kts 259°
2026-04-21 09:39 43.06374 74.49681 2071 ft 74 kts 260°
2026-04-21 09:39 43.06246 74.48681 2068 ft 136 kts 260°
2026-04-21 09:39 43.06051 74.47184 2141 ft 176 kts 260°
2026-04-21 09:40 43.05862 74.45533 2771 ft 177 kts 262°
2026-04-21 09:40 43.05674 74.43877 3531 ft 175 kts 264°
2026-04-21 09:40 43.05420 74.42197 4124 ft 190 kts 257°
2026-04-21 09:40 43.04960 74.40390 4465 ft 215 kts 249°
2026-04-21 09:41 43.04388 74.38372 4959 ft 240 kts 251°
2026-04-21 09:41 43.03757 74.36129 5550 ft 263 kts 250°
2026-04-21 09:41 43.03087 74.33755 6453 ft 271 kts 249°
2026-04-21 09:41 43.02403 74.31339 7481 ft 273 kts 248°
2026-04-21 09:42 43.01713 74.28910 8490 ft 276 kts 248°
2026-04-21 09:42 43.01017 74.26459 9495 ft 278 kts 248°
2026-04-21 09:42 43.00312 74.23969 10341 ft 287 kts 248°
2026-04-21 09:42 42.99569 74.21339 10822 ft 306 kts 249°
2026-04-21 09:43 42.98794 74.18597 11612 ft 312 kts 249°
2026-04-21 09:43 42.98007 74.15821 12523 ft 314 kts 249°
2026-04-21 09:43 42.97205 74.12998 13452 ft 316 kts 249°
2026-04-21 09:43 42.96406 74.10192 14294 ft 318 kts 249°
2026-04-21 09:44 42.95601 74.07363 15071 ft 321 kts 249°
2026-04-21 09:44 42.94790 74.04520 15837 ft 323 kts 249°
2026-04-21 09:44 42.93969 74.01650 16587 ft 326 kts 250°
2026-04-21 09:44 42.93148 73.98746 17338 ft 329 kts 250°
2026-04-21 09:45 42.92374 73.95794 18091 ft 332 kts 252°
2026-04-21 09:45 42.91629 73.92799 18740 ft 335 kts 252°
2026-04-21 09:45 42.90887 73.89771 19382 ft 338 kts 252°
2026-04-21 09:45 42.90137 73.86714 20026 ft 341 kts 252°
2026-04-21 09:46 42.89379 73.83640 20665 ft 344 kts 252°
2026-04-21 09:46 42.88606 73.80541 21303 ft 347 kts 251°
2026-04-21 09:46 42.87820 73.77414 21931 ft 350 kts 251°
2026-04-21 09:46 42.87022 73.74265 22569 ft 353 kts 251°
2026-04-21 09:47 42.86216 73.71085 23192 ft 356 kts 251°
2026-04-21 09:47 42.85402 73.67879 23758 ft 359 kts 251°
2026-04-21 09:47 42.84582 73.64655 24297 ft 361 kts 252°
2026-04-21 09:47 42.83636 73.61477 24827 ft 365 kts 243°
2026-04-21 09:48 42.82069 73.58734 25348 ft 373 kts 227°
2026-04-21 09:48 42.79887 73.56729 25833 ft 387 kts 210°
2026-04-21 09:48 42.77245 73.55746 26288 ft 405 kts 192°
2026-04-21 09:48 42.74374 73.55919 26713 ft 420 kts 180°
2026-04-21 09:49 42.71457 73.56423 27133 ft 425 kts 180°
2026-04-21 09:49 42.68510 73.56955 27536 ft 430 kts 180°
2026-04-21 09:49 42.65529 73.57499 27919 ft 434 kts 180°
2026-04-21 09:49 42.62517 73.58047 28212 ft 438 kts 181°
2026-04-21 09:50 42.59478 73.58589 28488 ft 442 kts 181°
2026-04-21 09:50 42.58446 73.58770 28549 ft 443 kts 181°
2026-04-21 09:50 42.50213 73.60192 29509 ft 454 kts 182°
2026-04-21 09:51 42.47063 73.60731 29935 ft 459 kts 182°
2026-04-21 09:51 42.43835 73.61273 30269 ft 461 kts 184°
2026-04-21 09:51 42.40705 73.61377 30563 ft 452 kts 193°
2026-04-21 09:51 42.37620 73.60840 30914 ft 442 kts 203°
2026-04-21 09:52 42.34656 73.59695 31299 ft 434 kts 210°
2026-04-21 09:52 42.31788 73.58378 31669 ft 437 kts 210°
2026-04-21 09:52 42.28895 73.57068 32051 ft 439 kts 210°
2026-04-21 09:52 42.25991 73.55767 32404 ft 441 kts 210°
2026-04-21 09:53 42.23073 73.54475 32764 ft 442 kts 209°
2026-04-21 09:53 42.20153 73.53188 33241 ft 440 kts 209°
2026-04-21 09:53 42.17253 73.51910 33742 ft 437 kts 210°
2026-04-21 09:53 42.14370 73.50634 34250 ft 435 kts 210°
2026-04-21 09:54 42.11498 73.49355 34675 ft 434 kts 209°
2026-04-21 09:54 42.08634 73.48074 35039 ft 434 kts 209°
2026-04-21 09:54 42.06739 73.47224 35252 ft 434 kts 209°
2026-04-21 09:54 42.03871 73.45938 35554 ft 434 kts 208°
2026-04-21 09:55 42.01010 73.44660 35921 ft 434 kts 208°
2026-04-21 09:55 41.97180 73.42957 36396 ft 433 kts 207°
2026-04-21 09:55 41.95283 73.42116 36629 ft 433 kts 207°
2026-04-21 09:55 41.92421 73.40844 36944 ft 433 kts 207°
2026-04-21 09:56 41.89566 73.39580 37244 ft 432 kts 207°
2026-04-21 09:56 41.86710 73.38318 37505 ft 432 kts 207°
2026-04-21 09:56 41.83856 73.37054 37779 ft 432 kts 206°
2026-04-21 09:56 41.80998 73.35790 38033 ft 433 kts 206°
2026-04-21 09:57 41.75283 73.33275 38090 ft 426 kts 206°
2026-04-21 09:57 41.69660 73.30808 38083 ft 424 kts 206°
2026-04-21 09:58 41.64058 73.28342 38075 ft 423 kts 206°
2026-04-21 09:58 41.58466 73.25881 38075 ft 423 kts 206°
2026-04-21 09:59 41.52884 73.23436 38061 ft 421 kts 207°
2026-04-21 09:59 41.47323 73.20995 38040 ft 421 kts 207°
2026-04-21 10:00 41.41746 73.18552 38050 ft 422 kts 207°
2026-04-21 10:00 41.36168 73.16122 38041 ft 421 kts 206°
2026-04-21 10:01 41.30593 73.13706 38041 ft 422 kts 207°
2026-04-21 10:01 41.25004 73.11278 38021 ft 422 kts 207°
2026-04-21 10:02 41.16623 73.07650 38003 ft 423 kts 207°
2026-04-21 10:03 41.11032 73.05234 38000 ft 423 kts 207°
2026-04-21 10:03 41.05441 73.02821 37989 ft 422 kts 207°
2026-04-21 10:04 40.99852 73.00416 37984 ft 422 kts 207°
2026-04-21 10:04 40.94266 72.98015 37972 ft 422 kts 207°
2026-04-21 10:05 40.88763 72.95291 37966 ft 418 kts 211°
2026-04-21 10:05 40.83408 72.92332 37957 ft 417 kts 211°
2026-04-21 10:06 40.78045 72.89390 37953 ft 418 kts 211°
2026-04-21 10:06 40.72640 72.86513 37952 ft 419 kts 210°
2026-04-21 10:07 40.67216 72.83671 37939 ft 420 kts 210°
2026-04-21 10:07 40.62032 72.80365 37935 ft 406 kts 223°
2026-04-21 10:08 40.58141 72.75275 37934 ft 388 kts 242°
2026-04-21 10:08 40.55193 72.69362 37935 ft 387 kts 243°
2026-04-21 10:09 40.52208 72.63465 37941 ft 388 kts 243°
2026-04-21 10:09 40.49211 72.57562 37941 ft 389 kts 243°
2026-04-21 10:10 40.46211 72.51649 37947 ft 389 kts 243°
2026-04-21 10:10 40.43210 72.45717 37950 ft 390 kts 243°
2026-04-21 10:11 40.40205 72.39783 37954 ft 391 kts 243°
2026-04-21 10:11 40.37183 72.33844 37958 ft 392 kts 242°
2026-04-21 10:12 40.34148 72.27894 37959 ft 393 kts 242°
2026-04-21 10:12 40.31088 72.21903 37965 ft 393 kts 242°
2026-04-21 10:13 40.28044 72.15952 37961 ft 394 kts 242°
2026-04-21 10:13 40.24988 72.09993 37958 ft 395 kts 241°
2026-04-21 10:14 40.21705 72.04200 37950 ft 398 kts 238°
2026-04-21 10:14 40.18238 71.98544 37954 ft 399 kts 237°
2026-04-21 10:15 40.14772 71.92892 37965 ft 399 kts 237°
2026-04-21 10:15 40.11338 71.87198 37968 ft 398 kts 238°
2026-04-21 10:16 40.07926 71.81501 37984 ft 398 kts 238°
2026-04-21 10:16 40.04507 71.75815 38004 ft 398 kts 238°
2026-04-21 10:17 40.01089 71.70136 38021 ft 398 kts 238°
2026-04-21 10:17 39.97670 71.64472 38042 ft 398 kts 237°
2026-04-21 10:18 39.94242 71.58807 38055 ft 398 kts 237°
2026-04-21 10:18 39.90817 71.53162 38060 ft 397 kts 237°
2026-04-21 10:19 39.87393 71.47534 38061 ft 397 kts 237°
2026-04-21 10:19 39.83964 71.41899 38053 ft 395 kts 237°
2026-04-21 10:20 39.80533 71.36261 38075 ft 396 kts 237°
2026-04-21 10:20 39.77105 71.30648 38076 ft 397 kts 237°
2026-04-21 10:21 39.73679 71.25043 38082 ft 396 kts 237°
2026-04-21 10:21 39.70250 71.19452 38072 ft 395 kts 237°
2026-04-21 10:22 39.66827 71.13874 38073 ft 395 kts 237°
2026-04-21 10:22 39.63402 71.08300 38083 ft 396 kts 237°
2026-04-21 10:23 39.59958 71.02722 38086 ft 396 kts 237°
2026-04-21 10:23 39.56530 70.97183 38087 ft 388 kts 237°
2026-04-21 10:24 39.53109 70.91637 38115 ft 396 kts 237°
2026-04-21 10:24 39.49663 70.86057 38113 ft 395 kts 238°
2026-04-21 10:25 39.46214 70.80505 38106 ft 394 kts 238°
2026-04-21 10:25 39.42797 70.75025 38101 ft 394 kts 238°
2026-04-21 10:26 39.39342 70.69487 38107 ft 395 kts 237°
2026-04-21 10:26 39.35883 70.63977 38139 ft 398 kts 237°
2026-04-21 10:27 39.32967 70.59327 38128 ft 396 kts 238°
2026-04-21 10:27 39.29482 70.53788 38141 ft 397 kts 237°
2026-04-21 10:28 39.25997 70.48259 38130 ft 397 kts 237°
2026-04-21 10:28 39.22555 70.42724 38110 ft 395 kts 238°
2026-04-21 10:29 39.19209 70.37139 38023 ft 394 kts 238°
2026-04-21 10:29 39.17530 70.34316 37477 ft 395 kts 238°
2026-04-21 10:29 39.15867 70.31538 37061 ft 389 kts 238°
2026-04-21 10:29 39.14217 70.28799 36626 ft 385 kts 238°
2026-04-21 10:30 39.12575 70.26087 36172 ft 382 kts 238°
2026-04-21 10:30 39.10945 70.23401 35741 ft 380 kts 238°
2026-04-21 10:30 39.09324 70.20732 35291 ft 377 kts 238°
2026-04-21 10:30 39.07720 70.18088 34838 ft 371 kts 238°
2026-04-21 10:31 39.06120 70.15457 34384 ft 365 kts 238°
2026-04-21 10:31 39.04582 70.12929 33939 ft 362 kts 238°
2026-04-21 10:31 39.03040 70.10391 33486 ft 358 kts 238°
2026-04-21 10:31 39.01492 70.07842 33054 ft 355 kts 238°
2026-04-21 10:32 38.99980 70.05352 32638 ft 352 kts 238°
2026-04-21 10:32 38.98477 70.02881 32216 ft 350 kts 237°
2026-04-21 10:32 38.96979 70.00429 31809 ft 347 kts 237°
2026-04-21 10:32 38.95493 69.98004 31400 ft 344 kts 237°
2026-04-21 10:33 38.94019 69.95599 30990 ft 341 kts 237°
2026-04-21 10:33 38.92554 69.93205 30599 ft 340 kts 237°
2026-04-21 10:33 38.91098 69.90825 30225 ft 338 kts 236°
2026-04-21 10:33 38.89651 69.88457 29803 ft 336 kts 237°
2026-04-21 10:34 38.88214 69.86110 29436 ft 332 kts 237°
2026-04-21 10:34 38.86791 69.83788 29064 ft 330 kts 236°
2026-04-21 10:34 38.85372 69.81479 28710 ft 328 kts 236°
2026-04-21 10:34 38.83964 69.79191 28350 ft 326 kts 236°
2026-04-21 10:35 38.82562 69.76910 28014 ft 325 kts 236°
2026-04-21 10:35 38.81166 69.74643 27648 ft 324 kts 236°
2026-04-21 10:35 38.79772 69.72385 27285 ft 322 kts 236°
2026-04-21 10:35 38.78385 69.70130 26927 ft 322 kts 235°
2026-04-21 10:36 38.77007 69.67881 26543 ft 320 kts 236°
2026-04-21 10:36 38.75636 69.65646 26175 ft 319 kts 235°
2026-04-21 10:36 38.74264 69.63417 25793 ft 318 kts 235°
2026-04-21 10:36 38.72898 69.61204 25404 ft 317 kts 235°
2026-04-21 10:37 38.71532 69.58997 25009 ft 315 kts 234°
2026-04-21 10:37 38.70172 69.56801 24596 ft 315 kts 234°
2026-04-21 10:37 38.68816 69.54609 24199 ft 314 kts 234°
2026-04-21 10:37 38.67461 69.52419 23797 ft 313 kts 234°
2026-04-21 10:38 38.66109 69.50236 23360 ft 313 kts 234°
2026-04-21 10:38 38.64757 69.48059 22934 ft 312 kts 234°
2026-04-21 10:38 38.63408 69.45897 22540 ft 310 kts 234°
2026-04-21 10:38 38.62070 69.43749 22137 ft 308 kts 233°
2026-04-21 10:39 38.60738 69.41610 21759 ft 306 kts 233°
2026-04-21 10:39 38.59395 69.39456 21370 ft 306 kts 233°
2026-04-21 10:39 38.58072 69.37332 20987 ft 305 kts 233°
2026-04-21 10:39 38.56756 69.35217 20611 ft 304 kts 233°
2026-04-21 10:40 38.55576 69.32991 20237 ft 302 kts 243°
2026-04-21 10:40 38.54779 69.30528 19858 ft 300 kts 255°
2026-04-21 10:40 38.54379 69.27857 19435 ft 311 kts 265°
2026-04-21 10:40 38.54329 69.25080 18984 ft 313 kts 269°
2026-04-21 10:41 38.54307 69.22328 18550 ft 314 kts 269°
2026-04-21 10:41 38.54276 69.19529 18090 ft 316 kts 268°
2026-04-21 10:41 38.54242 69.16722 17614 ft 316 kts 268°
2026-04-21 10:41 38.54204 69.14514 17260 ft 316 kts 268°
2026-04-21 10:42 38.54085 69.11719 16814 ft 315 kts 261°
2026-04-21 10:42 38.53509 69.09037 16377 ft 314 kts 248°
2026-04-21 10:42 38.52597 69.06498 15939 ft 314 kts 245°
2026-04-21 10:42 38.51680 69.03971 15501 ft 314 kts 245°
2026-04-21 10:43 38.50765 69.01431 15066 ft 315 kts 245°
2026-04-21 10:43 38.49852 68.98900 14621 ft 311 kts 245°
2026-04-21 10:43 38.48950 68.96407 14198 ft 310 kts 245°
2026-04-21 10:43 38.48047 68.93908 13773 ft 312 kts 245°
2026-04-21 10:44 38.47136 68.91390 13306 ft 313 kts 245°
2026-04-21 10:44 38.46223 68.88870 12865 ft 312 kts 245°
2026-04-21 10:44 38.45311 68.86359 12430 ft 311 kts 245°
2026-04-21 10:44 38.44439 68.83842 11996 ft 310 kts 251°
2026-04-21 10:45 38.44141 68.81132 11581 ft 309 kts 267°
2026-04-21 10:45 38.44054 68.78394 11149 ft 309 kts 267°
2026-04-21 10:45 38.43982 68.75654 10724 ft 309 kts 267°
2026-04-21 10:45 38.43949 68.72908 10298 ft 310 kts 269°
2026-04-21 10:46 38.43962 68.70183 9865 ft 304 kts 270°
2026-04-21 10:46 38.43992 68.67536 9424 ft 294 kts 270°
2026-04-21 10:46 38.44023 68.64936 9020 ft 292 kts 270°
2026-04-21 10:46 38.44044 68.62312 8608 ft 292 kts 270°
2026-04-21 10:47 38.44057 68.59733 8204 ft 290 kts 270°
2026-04-21 10:47 38.44068 68.57161 7800 ft 289 kts 270°
2026-04-21 10:47 38.44077 68.54602 7401 ft 289 kts 270°
2026-04-21 10:47 38.44302 68.52104 7191 ft 279 kts 291°
2026-04-21 10:48 38.45412 68.50191 7044 ft 265 kts 323°
2026-04-21 10:48 38.46951 68.48997 6847 ft 252 kts 335°
2026-04-21 10:48 38.48535 68.48120 6658 ft 244 kts 340°
2026-04-21 10:48 38.50163 68.47870 6467 ft 233 kts 12°
2026-04-21 10:49 38.51585 68.48706 6308 ft 223 kts 41°
2026-04-21 10:49 38.52660 68.50094 6141 ft 218 kts 47°
2026-04-21 10:49 38.53673 68.51505 5964 ft 213 kts 56°
2026-04-21 10:49 38.54248 68.53178 5872 ft 202 kts 79°
2026-04-21 10:50 38.54311 68.54930 5874 ft 197 kts 90°
2026-04-21 10:50 38.54312 68.56674 5870 ft 196 kts 90°
2026-04-21 10:50 38.54318 68.58413 5870 ft 195 kts 90°
2026-04-21 10:50 38.54331 68.60150 5809 ft 197 kts 88°
2026-04-21 10:51 38.54373 68.61917 5439 ft 202 kts 89°
2026-04-21 10:51 38.54388 68.63696 5083 ft 197 kts 90°
2026-04-21 10:51 38.54391 68.65431 4802 ft 193 kts 90°
2026-04-21 10:51 38.54391 68.67122 4576 ft 189 kts 90°
2026-04-21 10:52 38.54390 68.68754 4351 ft 178 kts 90°
2026-04-21 10:52 38.54388 68.70279 4154 ft 164 kts 90°
2026-04-21 10:52 38.54387 68.71657 3960 ft 148 kts 89°
2026-04-21 10:52 38.54386 68.72948 3761 ft 143 kts 89°
2026-04-21 10:53 38.54384 68.74208 3555 ft 141 kts 89°
2026-04-21 10:53 38.54383 68.75450 3382 ft 139 kts 90°
2026-04-21 10:53 38.54381 68.76690 3201 ft 137 kts 90°
2026-04-21 10:53 38.54379 68.77897 3026 ft 136 kts 90°
2026-04-21 10:54 38.54377 68.79104 2873 ft 134 kts 91°
2026-04-21 10:54 38.54371 68.80309 2700 ft 136 kts 90°
2026-04-21 10:54 38.54370 68.81518 2594 ft 134 kts 90°
2026-04-21 10:54 38.54373 68.82549 2581 ft 98 kts 90°
2026-04-21 10:55 38.54371 68.83156 2578 ft 27 kts 91°
2026-04-21 10:55 38.54395 68.83284 2579 ft 0 kts 27°
2026-04-21 10:55 38.54403 68.83288 2579 ft 3 kts 19°
2026-04-21 10:55 38.54428 68.83290 2575 ft 5 kts 357°
2026-04-21 10:56 38.54478 68.83289 2579 ft 9 kts
2026-04-21 10:56 38.54541 68.83289 2580 ft 10 kts
2026-04-21 10:56 38.54611 68.83291 2580 ft 11 kts
2026-04-21 10:56 38.54682 68.83273 2576 ft 11 kts 310°
2026-04-21 10:57 38.54687 68.83176 2579 ft 11 kts 269°
2026-04-21 10:57 38.54687 68.83072 2579 ft 12 kts 270°
2026-04-21 10:57 38.54688 68.82960 2582 ft 13 kts 271°
2026-04-21 10:57 38.54689 68.82841 2582 ft 14 kts 270°
2026-04-21 10:58 38.54689 68.82715 2582 ft 15 kts 270°
2026-04-21 10:58 38.54689 68.82582 2582 ft 15 kts 270°
2026-04-21 10:58 38.54697 68.82446 2582 ft 16 kts 279°
2026-04-21 10:58 38.54700 68.82304 2582 ft 16 kts 270°
2026-04-21 10:59 38.54700 68.82156 2582 ft 17 kts 269°
2026-04-21 10:59 38.54699 68.82003 2582 ft 18 kts 270°
2026-04-21 10:59 38.54701 68.81850 2582 ft 16 kts 270°
2026-04-21 10:59 38.54702 68.81710 2576 ft 16 kts 270°
2026-04-21 11:00 38.54701 68.81584 2582 ft 14 kts 269°
2026-04-21 11:00 38.54720 68.81516 2579 ft 1 kts 328°
2026-04-21 11:00 38.54723 68.81511 2576 ft 2 kts 311°
2026-04-21 11:00 38.54724 68.81494 2579 ft 4 kts 261°
2026-04-21 11:01 38.54730 68.81464 2581 ft 4 kts 347°
2026-04-21 11:01 38.54761 68.81474 2576 ft 6 kts 24°
2026-04-21 11:01 38.54786 68.81486 2579 ft 3 kts 19°
2026-04-21 11:02 38.54789 68.81487 2582 ft 0 kts 20°